Location: Arbon
(43.0005°N, 0.7472°E)
Time: 02:58:19
(UTC+00:00)

Spot 4 Rocket - Pass Details

Date: 07 August 2020
Orbit: 776 x 781 km, 98.7° (Epoch: 25 September)

Event Time Altitude Azimuth Distance (km) Brightness Sun altitude
Rises 03:11:30 0° 13° (NNE) 3,279 8.2 -16.6°
Reaches altitude 10° 03:13:49 10° 13° (NNE) 2,346 7.3 -16.3°
Maximum altitude 03:19:00 86° 285° (WNW) 789 4.0 -15.6°
Enters shadow 03:22:56 18° 197° (SSW) 1,850 5.5 -15.0°
